Year,Month,Day,Hour,Minute,Value (Times are PST for temperature in C)
2006,04,24,00,00,11.60
2006,04,24,00,01,11.60
2006,04,24,00,02,11.50
2006,04,24,00,03,11.40
2006,04,24,00,04,11.40
2006,04,24,00,05,11.40
2006,04,24,00,06,11.40
2006,04,24,00,07,11.40
2006,04,24,00,08,11.40
2006,04,24,00,09,11.40
2006,04,24,00,10,11.30
2006,04,24,00,11,11.30
2006,04,24,00,12,11.30
2006,04,24,00,13,11.30
2006,04,24,00,14,11.30
2006,04,24,00,15,11.20
2006,04,24,00,16,11.20
2006,04,24,00,17,11.20
2006,04,24,00,18,11.20
2006,04,24,00,19,11.20
2006,04,24,00,20,11.10
2006,04,24,00,21,11.10
2006,04,24,00,22,11.10
2006,04,24,00,23,11.10
2006,04,24,00,24,11.00
2006,04,24,00,25,10.90
2006,04,24,00,26,10.90
2006,04,24,00,27,10.80
2006,04,24,00,28,10.80
2006,04,24,00,29,10.70
2006,04,24,00,30,10.70
2006,04,24,00,31,10.70
2006,04,24,00,32,10.60
2006,04,24,00,33,10.60
2006,04,24,00,34,10.60
2006,04,24,00,35,10.60
2006,04,24,00,36,10.50
2006,04,24,00,37,10.40
2006,04,24,00,38,10.40
2006,04,24,00,39,10.40
2006,04,24,00,40,10.30
2006,04,24,00,41,10.30
2006,04,24,00,42,10.20
2006,04,24,00,43,10.20
2006,04,24,00,44,10.10
2006,04,24,00,45,10.10
2006,04,24,00,46,10.10
2006,04,24,00,47,10.10
2006,04,24,00,48,10.10
2006,04,24,00,49,10.00
2006,04,24,00,50,9.90
2006,04,24,00,51,9.90
2006,04,24,00,52,9.90
2006,04,24,00,53,9.90
2006,04,24,00,54,9.80
2006,04,24,00,55,9.80
2006,04,24,00,56,9.80
2006,04,24,00,57,9.80
2006,04,24,00,58,9.80
2006,04,24,00,59,9.80
2006,04,24,01,00,9.70
2006,04,24,01,01,9.70
2006,04,24,01,02,9.70
2006,04,24,01,03,9.70
2006,04,24,01,04,9.80
2006,04,24,01,05,9.80
2006,04,24,01,06,9.80
2006,04,24,01,07,9.80
2006,04,24,01,08,9.80
2006,04,24,01,09,9.90
2006,04,24,01,10,9.90
2006,04,24,01,11,9.80
2006,04,24,01,12,9.80
2006,04,24,01,13,9.80
2006,04,24,01,14,9.80
2006,04,24,01,15,9.80
2006,04,24,01,16,9.80
2006,04,24,01,17,9.80
2006,04,24,01,18,9.80
2006,04,24,01,19,9.80
2006,04,24,01,20,9.80
2006,04,24,01,21,9.80
2006,04,24,01,22,9.80
2006,04,24,01,23,9.80
2006,04,24,01,24,9.80
2006,04,24,01,25,9.80
2006,04,24,01,26,9.80
2006,04,24,01,27,9.80
2006,04,24,01,28,9.90
2006,04,24,01,29,10.00
2006,04,24,01,30,10.10
2006,04,24,01,31,10.20
2006,04,24,01,32,10.30
2006,04,24,01,33,10.40
2006,04,24,01,34,10.40
2006,04,24,01,35,10.40
2006,04,24,01,36,10.50
2006,04,24,01,37,10.60
2006,04,24,01,38,10.60
2006,04,24,01,39,10.60
2006,04,24,01,40,10.60
2006,04,24,01,41,10.60
2006,04,24,01,42,10.60
2006,04,24,01,43,10.60
2006,04,24,01,44,10.60
2006,04,24,01,45,10.70
2006,04,24,01,46,10.70
2006,04,24,01,47,10.70
2006,04,24,01,48,10.80
2006,04,24,01,49,10.80
2006,04,24,01,50,10.80
2006,04,24,01,51,10.90
2006,04,24,01,52,10.90
2006,04,24,01,53,10.90
2006,04,24,01,54,10.90
2006,04,24,01,55,11.00
2006,04,24,01,56,11.10
2006,04,24,01,57,11.10
2006,04,24,01,58,11.10
2006,04,24,01,59,11.10
2006,04,24,02,00,11.10
2006,04,24,02,01,11.10
2006,04,24,02,02,11.10
2006,04,24,02,03,11.00
2006,04,24,02,04,10.90
2006,04,24,02,05,10.90
2006,04,24,02,06,10.90
2006,04,24,02,07,10.90
2006,04,24,02,08,10.90
2006,04,24,02,09,10.80
2006,04,24,02,10,10.80
2006,04,24,02,11,10.80
2006,04,24,02,12,10.80
2006,04,24,02,13,10.80
2006,04,24,02,14,10.80
2006,04,24,02,15,10.70
2006,04,24,02,16,10.70
2006,04,24,02,17,10.70
2006,04,24,02,18,10.70
2006,04,24,02,19,10.70
2006,04,24,02,20,10.70
2006,04,24,02,21,10.70
2006,04,24,02,22,10.70
2006,04,24,02,23,10.70
2006,04,24,02,24,10.70
2006,04,24,02,25,10.60
2006,04,24,02,26,10.60
2006,04,24,02,27,10.60
2006,04,24,02,28,10.60
2006,04,24,02,29,10.60
2006,04,24,02,30,10.60
2006,04,24,02,31,10.60
2006,04,24,02,32,10.60
2006,04,24,02,33,10.60
2006,04,24,02,34,10.60
2006,04,24,02,35,10.60
2006,04,24,02,36,10.50
2006,04,24,02,37,10.40
2006,04,24,02,38,10.40
2006,04,24,02,39,10.40
2006,04,24,02,40,10.40
2006,04,24,02,41,10.40
2006,04,24,02,42,10.40
2006,04,24,02,43,10.60
2006,04,24,02,44,10.60
2006,04,24,02,45,10.60
2006,04,24,02,46,10.60
2006,04,24,02,47,10.60
2006,04,24,02,48,10.60
2006,04,24,02,49,10.50
2006,04,24,02,50,10.40
2006,04,24,02,51,10.40
2006,04,24,02,52,10.40
2006,04,24,02,53,10.40
2006,04,24,02,54,10.40
2006,04,24,02,55,10.30
2006,04,24,02,56,10.30
2006,04,24,02,57,10.20
2006,04,24,02,58,10.20
2006,04,24,02,59,10.10
2006,04,24,03,00,10.10
2006,04,24,03,01,10.10
2006,04,24,03,02,10.00
2006,04,24,03,03,9.90
2006,04,24,03,04,9.90
2006,04,24,03,05,9.80
2006,04,24,03,06,9.80
2006,04,24,03,07,9.70
2006,04,24,03,08,9.70
2006,04,24,03,09,9.70
2006,04,24,03,10,9.70
2006,04,24,03,11,9.70
2006,04,24,03,12,9.70
2006,04,24,03,13,9.70
2006,04,24,03,14,9.70
2006,04,24,03,15,9.70
2006,04,24,03,16,9.70
2006,04,24,03,17,9.70
2006,04,24,03,18,9.70
2006,04,24,03,19,9.70
2006,04,24,03,20,9.60
2006,04,24,03,21,9.60
2006,04,24,03,22,9.50
2006,04,24,03,23,9.50
2006,04,24,03,24,9.40
2006,04,24,03,25,9.40
2006,04,24,03,26,9.30
2006,04,24,03,27,9.30
2006,04,24,03,28,9.30
2006,04,24,03,29,9.20
2006,04,24,03,30,9.20
2006,04,24,03,31,9.20
2006,04,24,03,32,9.20
2006,04,24,03,33,9.20
2006,04,24,03,34,9.20
2006,04,24,03,35,9.20
2006,04,24,03,36,9.20
2006,04,24,03,37,9.20
2006,04,24,03,38,9.20
2006,04,24,03,39,9.20
2006,04,24,03,40,9.10
2006,04,24,03,41,9.10
2006,04,24,03,42,9.10
2006,04,24,03,43,9.00
2006,04,24,03,44,8.90
2006,04,24,03,45,8.90
2006,04,24,03,46,8.80
2006,04,24,03,47,8.80
2006,04,24,03,48,8.70
2006,04,24,03,49,8.70
2006,04,24,03,50,8.70
2006,04,24,03,51,8.70
2006,04,24,03,52,8.70
2006,04,24,03,53,8.70
2006,04,24,03,54,8.70
2006,04,24,03,55,8.70
2006,04,24,03,56,8.70
2006,04,24,03,57,8.70
2006,04,24,03,58,8.70
2006,04,24,03,59,8.70
2006,04,24,04,00,8.70
2006,04,24,04,01,8.70
2006,04,24,04,02,8.70
2006,04,24,04,03,8.80
2006,04,24,04,04,8.80
2006,04,24,04,05,8.90
2006,04,24,04,06,8.90
2006,04,24,04,07,8.90
2006,04,24,04,08,9.00
2006,04,24,04,09,9.00
2006,04,24,04,10,9.00
2006,04,24,04,11,8.90
2006,04,24,04,12,9.00
2006,04,24,04,13,9.00
2006,04,24,04,14,9.00
2006,04,24,04,15,9.00
2006,04,24,04,16,9.00
2006,04,24,04,17,8.90
2006,04,24,04,18,8.90
2006,04,24,04,19,8.80
2006,04,24,04,20,8.70
2006,04,24,04,21,8.70
2006,04,24,04,22,8.70
2006,04,24,04,23,8.70
2006,04,24,04,24,8.70
2006,04,24,04,25,8.60
2006,04,24,04,26,8.60
2006,04,24,04,27,8.60
2006,04,24,04,28,8.70
2006,04,24,04,29,8.70
2006,04,24,04,30,8.70
2006,04,24,04,31,8.70
2006,04,24,04,32,8.70
2006,04,24,04,33,8.70
2006,04,24,04,34,8.70
2006,04,24,04,35,8.80
2006,04,24,04,36,8.80
2006,04,24,04,37,8.90
2006,04,24,04,38,8.90
2006,04,24,04,39,9.00
2006,04,24,04,40,9.10
2006,04,24,04,41,9.20
2006,04,24,04,42,9.30
2006,04,24,04,43,9.40
2006,04,24,04,44,9.40
2006,04,24,04,45,9.50
2006,04,24,04,46,9.60
2006,04,24,04,47,9.70
2006,04,24,04,48,9.70
2006,04,24,04,49,9.80
2006,04,24,04,50,9.90
2006,04,24,04,51,9.90
2006,04,24,04,52,9.90
2006,04,24,04,53,9.90
2006,04,24,04,54,9.90
2006,04,24,04,55,9.90
2006,04,24,04,56,9.80
2006,04,24,04,57,9.80
2006,04,24,04,58,9.80
2006,04,24,04,59,9.80
2006,04,24,05,00,9.80
2006,04,24,05,01,9.70
2006,04,24,05,02,9.70
2006,04,24,05,03,9.70
2006,04,24,05,04,9.70
2006,04,24,05,05,9.70
2006,04,24,05,06,9.70
2006,04,24,05,07,9.60
2006,04,24,05,08,9.60
2006,04,24,05,09,9.60
2006,04,24,05,10,9.60
2006,04,24,05,11,9.60
2006,04,24,05,12,9.50
2006,04,24,05,13,9.50
2006,04,24,05,14,9.40
2006,04,24,05,15,9.40
2006,04,24,05,16,9.30
2006,04,24,05,17,9.30
2006,04,24,05,18,9.30
2006,04,24,05,19,9.30
2006,04,24,05,20,9.30
2006,04,24,05,21,9.20
2006,04,24,05,22,9.20
2006,04,24,05,23,9.10
2006,04,24,05,24,9.10
2006,04,24,05,25,9.00
2006,04,24,05,26,9.00
2006,04,24,05,27,8.90
2006,04,24,05,28,8.90
2006,04,24,05,29,8.80
2006,04,24,05,30,8.80
2006,04,24,05,31,8.70
2006,04,24,05,32,8.70
2006,04,24,05,33,8.70
2006,04,24,05,34,8.70
2006,04,24,05,35,8.70
2006,04,24,05,36,8.70
2006,04,24,05,37,8.70
2006,04,24,05,38,8.80
2006,04,24,05,39,8.70
2006,04,24,05,40,8.70
2006,04,24,05,41,8.70
2006,04,24,05,42,8.70
2006,04,24,05,43,8.70
2006,04,24,05,44,8.60
2006,04,24,05,45,8.60
2006,04,24,05,46,8.60
2006,04,24,05,47,8.50
2006,04,24,05,48,8.50
2006,04,24,05,49,8.50
2006,04,24,05,50,8.50
2006,04,24,05,51,8.50
2006,04,24,05,52,8.50
2006,04,24,05,53,8.50
2006,04,24,05,54,8.50
2006,04,24,05,55,8.50
2006,04,24,05,56,8.50
2006,04,24,05,57,8.50
2006,04,24,05,58,8.50
2006,04,24,05,59,8.50
2006,04,24,06,00,8.40
2006,04,24,06,01,8.40
2006,04,24,06,02,8.40
2006,04,24,06,03,8.40
2006,04,24,06,04,8.30
2006,04,24,06,05,8.30
2006,04,24,06,06,8.30
2006,04,24,06,07,8.30
2006,04,24,06,08,8.30
2006,04,24,06,09,8.30
2006,04,24,06,10,8.20
2006,04,24,06,11,8.20
2006,04,24,06,12,8.20
2006,04,24,06,13,8.20
2006,04,24,06,14,8.20
2006,04,24,06,15,8.20
2006,04,24,06,16,8.20
2006,04,24,06,17,8.10
2006,04,24,06,18,8.10
2006,04,24,06,19,8.10
2006,04,24,06,20,8.00
2006,04,24,06,21,8.00
2006,04,24,06,22,8.00
2006,04,24,06,23,8.00
2006,04,24,06,24,8.00
2006,04,24,06,25,8.00
2006,04,24,06,26,7.90
2006,04,24,06,27,7.90
2006,04,24,06,28,7.90
2006,04,24,06,29,8.00
2006,04,24,06,30,8.00
2006,04,24,06,31,8.00
2006,04,24,06,32,8.00
2006,04,24,06,33,8.00
2006,04,24,06,34,8.00
2006,04,24,06,35,8.00
2006,04,24,06,36,8.00
2006,04,24,06,37,8.00
2006,04,24,06,38,8.10
2006,04,24,06,39,8.10
2006,04,24,06,40,8.10
2006,04,24,06,41,8.10
2006,04,24,06,42,8.10
2006,04,24,06,43,8.20
2006,04,24,06,44,8.20
2006,04,24,06,45,8.20
2006,04,24,06,46,8.20
2006,04,24,06,47,8.20
2006,04,24,06,48,8.20
2006,04,24,06,49,8.20
2006,04,24,06,50,8.20
2006,04,24,06,51,8.20
2006,04,24,06,52,8.20
2006,04,24,06,53,8.30
2006,04,24,06,54,8.30
2006,04,24,06,55,8.40
2006,04,24,06,56,8.40
2006,04,24,06,57,8.50
2006,04,24,06,58,8.60
2006,04,24,06,59,8.70
2006,04,24,07,00,8.70
2006,04,24,07,01,8.90
2006,04,24,07,02,8.90
2006,04,24,07,03,9.00
2006,04,24,07,04,9.10
2006,04,24,07,05,9.20
2006,04,24,07,06,9.30
2006,04,24,07,07,9.40
2006,04,24,07,08,9.50
2006,04,24,07,09,9.50
2006,04,24,07,10,9.60
2006,04,24,07,11,9.60
2006,04,24,07,12,9.60
2006,04,24,07,13,9.70
2006,04,24,07,14,9.70
2006,04,24,07,15,9.70
2006,04,24,07,16,9.70
2006,04,24,07,17,9.70
2006,04,24,07,18,9.80
2006,04,24,07,19,9.80
2006,04,24,07,20,9.80
2006,04,24,07,21,9.90
2006,04,24,07,22,9.90
2006,04,24,07,23,9.90
2006,04,24,07,24,10.00
2006,04,24,07,25,10.10
2006,04,24,07,26,10.10
2006,04,24,07,27,10.10
2006,04,24,07,28,10.10
2006,04,24,07,29,10.10
2006,04,24,07,30,10.00
2006,04,24,07,31,9.90
2006,04,24,07,32,9.90
2006,04,24,07,33,9.90
2006,04,24,07,34,9.90
2006,04,24,07,35,9.90
2006,04,24,07,36,9.90
2006,04,24,07,37,9.90
2006,04,24,07,38,9.90
2006,04,24,07,39,9.90
2006,04,24,07,40,9.90
2006,04,24,07,41,9.90
2006,04,24,07,42,9.90
2006,04,24,07,43,9.90
2006,04,24,07,44,10.00
2006,04,24,07,45,10.10
2006,04,24,07,46,10.10
2006,04,24,07,47,10.10
2006,04,24,07,48,10.10
2006,04,24,07,49,10.10
2006,04,24,07,50,10.10
2006,04,24,07,51,10.20
2006,04,24,07,52,10.20
2006,04,24,07,53,10.20
2006,04,24,07,54,10.20
2006,04,24,07,55,10.20
2006,04,24,07,56,10.20
2006,04,24,07,57,10.20
2006,04,24,07,58,10.20
2006,04,24,07,59,10.20
2006,04,24,08,00,10.20
2006,04,24,08,01,10.20
2006,04,24,08,02,10.20
2006,04,24,08,03,10.20
2006,04,24,08,04,10.20
2006,04,24,08,05,10.30
2006,04,24,08,06,10.30
2006,04,24,08,07,10.30
2006,04,24,08,08,10.30
2006,04,24,08,09,10.30
2006,04,24,08,10,10.40
2006,04,24,08,11,10.40
2006,04,24,08,12,10.40
2006,04,24,08,13,10.40
2006,04,24,08,14,10.40
2006,04,24,08,15,10.40
2006,04,24,08,16,10.40
2006,04,24,08,17,10.50
2006,04,24,08,18,10.60
2006,04,24,08,19,10.60
2006,04,24,08,20,10.60
2006,04,24,08,21,10.60
2006,04,24,08,22,10.60
2006,04,24,08,23,10.70
2006,04,24,08,24,10.70
2006,04,24,08,25,10.70
2006,04,24,08,26,10.70
2006,04,24,08,27,10.80
2006,04,24,08,28,10.80
2006,04,24,08,29,10.80
2006,04,24,08,30,10.90
2006,04,24,08,31,10.90
2006,04,24,08,32,10.90
2006,04,24,08,33,10.90
2006,04,24,08,34,10.90
2006,04,24,08,35,10.90
2006,04,24,08,36,10.90
2006,04,24,08,37,10.80
2006,04,24,08,38,10.90
2006,04,24,08,39,10.90
2006,04,24,08,40,10.90
2006,04,24,08,41,10.90
2006,04,24,08,42,10.90
2006,04,24,08,43,11.00
2006,04,24,08,44,11.10
2006,04,24,08,45,11.10
2006,04,24,08,46,11.20
2006,04,24,08,47,11.20
2006,04,24,08,48,11.20
2006,04,24,08,49,11.20
2006,04,24,08,50,11.20
2006,04,24,08,51,11.30
2006,04,24,08,52,11.30
2006,04,24,08,53,11.40
2006,04,24,08,54,11.50
2006,04,24,08,55,11.60
2006,04,24,08,56,11.60
2006,04,24,08,57,11.60
2006,04,24,08,58,11.70
2006,04,24,08,59,11.80
2006,04,24,09,00,11.80
2006,04,24,09,01,11.80
2006,04,24,09,02,11.90
2006,04,24,09,03,11.90
2006,04,24,09,04,12.00
2006,04,24,09,05,12.00
2006,04,24,09,06,12.10
2006,04,24,09,07,12.10
2006,04,24,09,08,12.20
2006,04,24,09,09,12.20
2006,04,24,09,10,12.30
2006,04,24,09,11,12.30
2006,04,24,09,12,12.30
2006,04,24,09,13,12.30
2006,04,24,09,14,12.30
2006,04,24,09,15,12.30
2006,04,24,09,16,12.30
2006,04,24,09,17,12.30
2006,04,24,09,18,12.30
2006,04,24,09,19,12.30
2006,04,24,09,20,12.30
2006,04,24,09,21,12.40
2006,04,24,09,22,12.40
2006,04,24,09,23,12.40
2006,04,24,09,24,12.50
2006,04,24,09,25,12.50
2006,04,24,09,26,12.60
2006,04,24,09,27,12.60
2006,04,24,09,28,12.60
2006,04,24,09,29,12.60
2006,04,24,09,30,12.70
2006,04,24,09,31,12.70
2006,04,24,09,32,12.80
2006,04,24,09,33,12.80
2006,04,24,09,34,12.80
2006,04,24,09,35,12.80
2006,04,24,09,36,12.80
2006,04,24,09,37,12.80
2006,04,24,09,38,12.80
2006,04,24,09,39,12.80
2006,04,24,09,40,12.80
2006,04,24,09,41,12.80
2006,04,24,09,42,12.80
2006,04,24,09,43,12.80
2006,04,24,09,44,12.80
2006,04,24,09,45,12.80
2006,04,24,09,46,12.80
2006,04,24,09,47,12.90
2006,04,24,09,48,12.90
2006,04,24,09,49,13.00
2006,04,24,09,50,13.00
2006,04,24,09,51,13.00
2006,04,24,09,52,13.00
2006,04,24,09,53,13.00
2006,04,24,09,54,12.90
2006,04,24,09,55,13.00
2006,04,24,09,56,13.00
2006,04,24,09,57,13.00
2006,04,24,09,58,13.10
2006,04,24,09,59,13.10
2006,04,24,10,00,13.10
2006,04,24,10,01,13.20
2006,04,24,10,02,13.20
2006,04,24,10,03,13.20
2006,04,24,10,04,13.20
2006,04,24,10,05,13.30
2006,04,24,10,06,13.30
2006,04,24,10,07,13.30
2006,04,24,10,08,13.30
2006,04,24,10,09,13.20
2006,04,24,10,10,13.20
2006,04,24,10,11,13.10
2006,04,24,10,12,13.20
2006,04,24,10,13,13.20
2006,04,24,10,14,13.20
2006,04,24,10,15,13.20
2006,04,24,10,16,13.20
2006,04,24,10,17,13.30
2006,04,24,10,18,13.30
2006,04,24,10,19,13.30
2006,04,24,10,20,13.30
2006,04,24,10,21,13.30
2006,04,24,10,22,13.30
2006,04,24,10,23,13.30
2006,04,24,10,24,13.30
2006,04,24,10,25,13.30
2006,04,24,10,26,13.30
2006,04,24,10,27,13.30
2006,04,24,10,28,13.30
2006,04,24,10,29,13.20
2006,04,24,10,30,13.20
2006,04,24,10,31,13.30
2006,04,24,10,32,13.30
2006,04,24,10,33,13.30
2006,04,24,10,34,13.30
2006,04,24,10,35,13.30
2006,04,24,10,36,13.30
2006,04,24,10,37,13.40
2006,04,24,10,38,13.40
2006,04,24,10,39,13.50
2006,04,24,10,40,13.50
2006,04,24,10,41,13.60
2006,04,24,10,42,13.60
2006,04,24,10,43,13.60
2006,04,24,10,44,13.50
2006,04,24,10,45,13.50
2006,04,24,10,46,13.50
2006,04,24,10,47,13.60
2006,04,24,10,48,13.70
2006,04,24,10,49,13.70
2006,04,24,10,50,13.70
2006,04,24,10,51,13.70
2006,04,24,10,52,13.70
2006,04,24,10,53,13.70
2006,04,24,10,54,13.70
2006,04,24,10,55,13.70
2006,04,24,10,56,13.70
2006,04,24,10,57,13.80
2006,04,24,10,58,13.90
2006,04,24,10,59,14.00
2006,04,24,11,00,14.00
2006,04,24,11,01,14.10
2006,04,24,11,02,14.20
2006,04,24,11,03,14.20
2006,04,24,11,04,14.30
2006,04,24,11,05,14.50
2006,04,24,11,06,14.50
2006,04,24,11,07,14.60
2006,04,24,11,08,14.50
2006,04,24,11,09,14.50
2006,04,24,11,10,14.60
2006,04,24,11,11,14.50
2006,04,24,11,12,14.60
2006,04,24,11,13,14.60
2006,04,24,11,14,14.50
2006,04,24,11,15,14.50
2006,04,24,11,16,14.50
2006,04,24,11,17,14.40
2006,04,24,11,18,14.30
2006,04,24,11,19,14.20
2006,04,24,11,20,14.20
2006,04,24,11,21,14.20
2006,04,24,11,22,14.20
2006,04,24,11,23,14.20
2006,04,24,11,24,14.20
2006,04,24,11,25,14.20
2006,04,24,11,26,14.20
2006,04,24,11,27,14.20
2006,04,24,11,28,14.20
2006,04,24,11,29,14.20
2006,04,24,11,30,14.30
2006,04,24,11,31,14.40
2006,04,24,11,32,14.40
2006,04,24,11,33,14.40
2006,04,24,11,34,14.50
2006,04,24,11,35,14.50
2006,04,24,11,36,14.60
2006,04,24,11,37,14.70
2006,04,24,11,38,14.80
2006,04,24,11,39,14.80
2006,04,24,11,40,14.90
2006,04,24,11,41,14.90
2006,04,24,11,42,15.00
2006,04,24,11,43,14.90
2006,04,24,11,44,14.90
2006,04,24,11,45,14.90
2006,04,24,11,46,14.90
2006,04,24,11,47,14.90
2006,04,24,11,48,14.90
2006,04,24,11,49,15.00
2006,04,24,11,50,15.00
2006,04,24,11,51,15.00
2006,04,24,11,52,15.10
2006,04,24,11,53,15.10
2006,04,24,11,54,15.10
2006,04,24,11,55,15.10
2006,04,24,11,56,15.10
2006,04,24,11,57,15.10
2006,04,24,11,58,15.00
2006,04,24,11,59,15.00
2006,04,24,12,00,15.10
2006,04,24,12,01,15.20
2006,04,24,12,02,15.20
2006,04,24,12,03,15.30
2006,04,24,12,04,15.30
2006,04,24,12,05,15.30
2006,04,24,12,06,15.40
2006,04,24,12,07,15.50
2006,04,24,12,08,15.50
2006,04,24,12,09,15.40
2006,04,24,12,10,15.40
2006,04,24,12,11,15.30
2006,04,24,12,12,15.30
2006,04,24,12,13,15.30
2006,04,24,12,14,15.30
2006,04,24,12,15,15.30
2006,04,24,12,16,15.40
2006,04,24,12,17,15.50
2006,04,24,12,18,15.60
2006,04,24,12,19,15.70
2006,04,24,12,20,15.70
2006,04,24,12,21,15.70
2006,04,24,12,22,15.70
2006,04,24,12,23,15.70
2006,04,24,12,24,15.70
2006,04,24,12,25,15.70
2006,04,24,12,26,15.80
2006,04,24,12,27,15.80
2006,04,24,12,28,15.80
2006,04,24,12,29,15.80
2006,04,24,12,30,15.80
2006,04,24,12,31,15.90
2006,04,24,12,32,16.00
2006,04,24,12,33,16.10
2006,04,24,12,34,16.10
2006,04,24,12,35,16.10
2006,04,24,12,36,16.10
2006,04,24,12,37,16.10
2006,04,24,12,38,16.10
2006,04,24,12,39,16.10
2006,04,24,12,40,16.10
2006,04,24,12,41,16.10
2006,04,24,12,42,16.10
2006,04,24,12,43,16.10
2006,04,24,12,44,16.10
2006,04,24,12,45,16.10
2006,04,24,12,46,16.00
2006,04,24,12,47,15.90
2006,04,24,12,48,15.90
2006,04,24,12,49,15.90
2006,04,24,12,50,15.90
2006,04,24,12,51,15.90
2006,04,24,12,52,15.90
2006,04,24,12,53,16.00
2006,04,24,12,54,16.20
2006,04,24,12,55,16.20
2006,04,24,12,56,16.20
2006,04,24,12,57,16.30
2006,04,24,12,58,16.30
2006,04,24,12,59,16.30
2006,04,24,13,00,16.30
2006,04,24,13,01,16.30
2006,04,24,13,02,16.40
2006,04,24,13,03,16.40
2006,04,24,13,04,16.50
2006,04,24,13,05,16.60
2006,04,24,13,06,16.70
2006,04,24,13,07,16.70
2006,04,24,13,08,16.70
2006,04,24,13,09,16.70
2006,04,24,13,10,16.80
2006,04,24,13,11,16.90
2006,04,24,13,12,16.80
2006,04,24,13,13,16.80
2006,04,24,13,14,16.90
2006,04,24,13,15,17.00
2006,04,24,13,16,17.00
2006,04,24,13,17,17.10
2006,04,24,13,18,17.10
2006,04,24,13,19,17.10
2006,04,24,13,20,17.10
2006,04,24,13,21,17.00
2006,04,24,13,22,16.90
2006,04,24,13,23,16.80
2006,04,24,13,24,16.70
2006,04,24,13,25,16.70
2006,04,24,13,26,16.70
2006,04,24,13,27,16.70
2006,04,24,13,28,16.80
2006,04,24,13,29,16.90
2006,04,24,13,30,16.90
2006,04,24,13,31,16.90
2006,04,24,13,32,16.90
2006,04,24,13,33,17.00
2006,04,24,13,34,16.90
2006,04,24,13,35,16.90
2006,04,24,13,36,17.00
2006,04,24,13,37,17.00
2006,04,24,13,38,17.10
2006,04,24,13,39,17.20
2006,04,24,13,40,17.30
2006,04,24,13,41,17.30
2006,04,24,13,42,17.40
2006,04,24,13,43,17.40
2006,04,24,13,44,17.40
2006,04,24,13,45,17.40
2006,04,24,13,46,17.50
2006,04,24,13,47,17.50
2006,04,24,13,48,17.50
2006,04,24,13,49,17.50
2006,04,24,13,50,17.50
2006,04,24,13,51,17.50
2006,04,24,13,52,17.50
2006,04,24,13,53,17.50
2006,04,24,13,54,17.50
2006,04,24,13,55,17.50
2006,04,24,13,56,17.40
2006,04,24,13,57,17.40
2006,04,24,13,58,17.50
2006,04,24,13,59,17.50
2006,04,24,14,00,17.50
2006,04,24,14,01,17.50
2006,04,24,14,02,17.50
2006,04,24,14,03,17.50
2006,04,24,14,04,17.50
2006,04,24,14,05,17.60
2006,04,24,14,06,17.70
2006,04,24,14,07,17.80
2006,04,24,14,08,17.80
2006,04,24,14,09,17.90
2006,04,24,14,10,18.00
2006,04,24,14,11,18.10
2006,04,24,14,12,18.10
2006,04,24,14,13,17.90
2006,04,24,14,14,17.90
2006,04,24,14,15,17.90
2006,04,24,14,16,17.90
2006,04,24,14,17,17.90
2006,04,24,14,18,17.90
2006,04,24,14,19,17.90
2006,04,24,14,20,17.90
2006,04,24,14,21,17.90
2006,04,24,14,22,18.00
2006,04,24,14,23,18.10
2006,04,24,14,24,18.10
2006,04,24,14,25,18.10
2006,04,24,14,26,18.20
2006,04,24,14,27,18.20
2006,04,24,14,28,18.20
2006,04,24,14,29,18.20
2006,04,24,14,30,18.20
2006,04,24,14,31,18.20
2006,04,24,14,32,18.30
2006,04,24,14,33,18.40
2006,04,24,14,34,18.50
2006,04,24,14,35,18.60
2006,04,24,14,36,18.70
2006,04,24,14,37,18.80
2006,04,24,14,38,18.80
2006,04,24,14,39,18.80
2006,04,24,14,40,18.80
2006,04,24,14,41,18.80
2006,04,24,14,42,18.90
2006,04,24,14,43,18.90
2006,04,24,14,44,18.90
2006,04,24,14,45,18.90
2006,04,24,14,46,18.90
2006,04,24,14,47,18.90
2006,04,24,14,48,18.90
2006,04,24,14,49,18.90
2006,04,24,14,50,18.80
2006,04,24,14,51,18.80
2006,04,24,14,52,18.90
2006,04,24,14,53,18.90
2006,04,24,14,54,18.90
2006,04,24,14,55,19.00
2006,04,24,14,56,19.10
2006,04,24,14,57,19.00
2006,04,24,14,58,18.90
2006,04,24,14,59,19.10
2006,04,24,15,00,19.10
2006,04,24,15,01,19.10
2006,04,24,15,02,19.20
2006,04,24,15,03,19.20
2006,04,24,15,04,19.20
2006,04,24,15,05,19.30
2006,04,24,15,06,19.40
2006,04,24,15,07,19.40
2006,04,24,15,08,19.40
2006,04,24,15,09,19.40
2006,04,24,15,10,19.40
2006,04,24,15,11,19.50
2006,04,24,15,12,19.60
2006,04,24,15,13,19.60
2006,04,24,15,14,19.60
2006,04,24,15,15,19.70
2006,04,24,15,16,19.80
2006,04,24,15,17,19.80
2006,04,24,15,18,19.80
2006,04,24,15,19,19.90
2006,04,24,15,20,19.90
2006,04,24,15,21,20.10
2006,04,24,15,22,20.20
2006,04,24,15,23,20.30
2006,04,24,15,24,20.30
2006,04,24,15,25,20.40
2006,04,24,15,26,20.50
2006,04,24,15,27,20.60
2006,04,24,15,28,20.60
2006,04,24,15,29,20.60
2006,04,24,15,30,20.60
2006,04,24,15,31,20.60
2006,04,24,15,32,20.60
2006,04,24,15,33,20.60
2006,04,24,15,34,20.60
2006,04,24,15,35,20.60
2006,04,24,15,36,20.60
2006,04,24,15,37,20.60
2006,04,24,15,38,20.70
2006,04,24,15,39,20.70
2006,04,24,15,40,20.80
2006,04,24,15,41,20.90
2006,04,24,15,42,21.00
2006,04,24,15,43,21.10
2006,04,24,15,44,21.10
2006,04,24,15,45,21.00
2006,04,24,15,46,20.90
2006,04,24,15,47,20.90
2006,04,24,15,48,20.80
2006,04,24,15,49,20.80
2006,04,24,15,50,20.70
2006,04,24,15,51,20.70
2006,04,24,15,52,20.80
2006,04,24,15,53,20.80
2006,04,24,15,54,20.80
2006,04,24,15,55,20.80
2006,04,24,15,56,20.90
2006,04,24,15,57,20.90
2006,04,24,15,58,21.00
2006,04,24,15,59,21.20
2006,04,24,16,00,21.20
2006,04,24,16,01,21.30
2006,04,24,16,02,21.30
2006,04,24,16,03,21.30
2006,04,24,16,04,21.40
2006,04,24,16,05,21.50
2006,04,24,16,06,21.60
2006,04,24,16,07,21.60
2006,04,24,16,08,21.60
2006,04,24,16,09,21.50
2006,04,24,16,10,21.30
2006,04,24,16,11,21.30
2006,04,24,16,12,21.20
2006,04,24,16,13,21.10
2006,04,24,16,14,21.10
2006,04,24,16,15,21.00
2006,04,24,16,16,20.90
2006,04,24,16,17,20.90
2006,04,24,16,18,20.80
2006,04,24,16,19,20.60
2006,04,24,16,20,20.40
2006,04,24,16,21,20.30
2006,04,24,16,22,20.30
2006,04,24,16,23,20.30
2006,04,24,16,24,20.20
2006,04,24,16,25,20.20
2006,04,24,16,26,20.30
2006,04,24,16,27,20.40
2006,04,24,16,28,20.50
2006,04,24,16,29,20.60
2006,04,24,16,30,20.60
2006,04,24,16,31,20.60
2006,04,24,16,32,20.70
2006,04,24,16,33,20.80
2006,04,24,16,34,20.80
2006,04,24,16,35,20.80
2006,04,24,16,36,20.90
2006,04,24,16,37,20.90
2006,04,24,16,38,20.90
2006,04,24,16,39,21.00
2006,04,24,16,40,21.10
2006,04,24,16,41,21.10
2006,04,24,16,42,21.00
2006,04,24,16,43,21.00
2006,04,24,16,44,20.90
2006,04,24,16,45,20.80
2006,04,24,16,46,20.80
2006,04,24,16,47,20.70
2006,04,24,16,48,20.70
2006,04,24,16,49,20.70
2006,04,24,16,50,20.80
2006,04,24,16,51,20.80
2006,04,24,16,52,20.80
2006,04,24,16,53,20.70
2006,04,24,16,54,20.70
2006,04,24,16,55,20.60
2006,04,24,16,56,20.50
2006,04,24,16,57,20.30
2006,04,24,16,58,20.20
2006,04,24,16,59,20.20
2006,04,24,17,00,20.20
2006,04,24,17,01,20.20
2006,04,24,17,02,20.20
2006,04,24,17,03,20.20
2006,04,24,17,04,20.20
2006,04,24,17,05,20.20
2006,04,24,17,06,20.20
2006,04,24,17,07,20.10
2006,04,24,17,08,20.00
2006,04,24,17,09,19.90
2006,04,24,17,10,19.90
2006,04,24,17,11,19.80
2006,04,24,17,12,19.80
2006,04,24,17,13,19.70
2006,04,24,17,14,19.60
2006,04,24,17,15,19.60
2006,04,24,17,16,19.60
2006,04,24,17,17,19.60
2006,04,24,17,18,19.60
2006,04,24,17,19,19.60
2006,04,24,17,20,19.60
2006,04,24,17,21,19.60
2006,04,24,17,22,19.60
2006,04,24,17,23,19.60
2006,04,24,17,24,19.60
2006,04,24,17,25,19.60
2006,04,24,17,26,19.60
2006,04,24,17,27,19.60
2006,04,24,17,28,19.70
2006,04,24,17,29,19.70
2006,04,24,17,30,19.80
2006,04,24,17,31,19.90
2006,04,24,17,32,19.90
2006,04,24,17,33,20.00